Weather History for Pullman, WA

Change the Weather History Date:

Monday, October 7, 2013

  Actual Average Record
Temperature  
Mean Temperature 49 °F 51 °F  
Max Temperature 62 °F 64 °F 87 °F (1943)
Min Temperature 35 °F 38 °F 25 °F (1983)
Degree Days  
Heating Degree Days 16 14  
Month to date heating degree days 123 93  
Since 1 July heating degree days 342 454  
Cooling Degree Days 0 0  
Month to date cooling degree days 0 0  
Year to date cooling degree days 334 212  
Moisture  
Dew Point 36 °F    
Average Humidity 61    
Maximum Humidity 82    
Minimum Humidity 39    
Precipitation  
Precipitation T in 0.03 in 0.86 in (1960)
Month to date precipitation T 0.23  
Year to date precipitation 11.54 11.92  
Sea Level Pressure  
Sea Level Pressure 29.96 in    
Wind  
Wind Speed 12 mph (WSW)    
Max Wind Speed 30 mph    
Max Gust Speed 37 mph    
Visibility 10 miles    
Events      
T = Trace of Precipitation, MM = Missing Value Source: NWS Daily Summary

Daily Weather History Graph

Daily Weather History Graph

Search for Another Location

Airport:

Trip Planner

Search our weather history database for the weather conditions in past years. The results will help you decide how hot, cold, wet, or windy it might be!

Date:

Astronomy

Oct. 07, 2013 Rise Set
Actual Time 6:55 AM PDT 6:15 PM PDT
Civil Twilight 6:25 AM PDT 6:46 PM PDT
Nautical Twilight 5:50 AM PDT 7:21 PM PDT
Astronomical Twilight 5:14 AM PDT 7:56 PM PDT
Moon 10:02 AM PDT (10/7) 7:51 PM PDT (10/7)
Length of Visible Light 12h 20m
Length of Day
11h 20m
Waxing Crescent, 9% of the Moon is Illuminated
Oct 7
Waxing Crescent
Oct 11
First Quarter
Oct 18
Full
Oct 26
Last Quarter
Nov 3
New

Hourly Weather History & Observations

Time (PDT) Temp. Windchill Dew Point Humidity Pressure Visibility Wind Dir Wind Speed Gust Speed Precip Events Conditions
12:53 AM 37.9 °F - 32.0 °F 79% 30.01 in 10.0 mi Calm Calm - N/A   Clear
1:53 AM 37.0 °F - 30.9 °F 79% 30.00 in 10.0 mi Calm Calm - N/A   Clear
2:53 AM 37.0 °F - 32.0 °F 82% 29.99 in 10.0 mi Calm Calm - N/A   Clear
3:53 AM 37.0 °F - 30.9 °F 79% 29.97 in 10.0 mi Calm Calm - N/A   Clear
4:53 AM 37.0 °F - 30.9 °F 79% 29.96 in 10.0 mi Calm Calm - N/A   Clear
5:53 AM 44.1 °F 41.5 °F 34.0 °F 68% 29.94 in 10.0 mi Variable 4.6 mph - N/A   Clear
6:53 AM 43.0 °F 40.3 °F 35.1 °F 74% 29.95 in 10.0 mi East 4.6 mph - N/A   Clear
7:53 AM 46.0 °F 44.8 °F 37.9 °F 73% 29.95 in 8.0 mi North 3.5 mph - N/A   Clear
8:53 AM 50.0 °F - 39.0 °F 66% 29.96 in 7.0 mi Calm Calm - N/A   Clear
9:53 AM 54.0 °F - 37.9 °F 55% 29.97 in 9.0 mi SW 3.5 mph - N/A   Overcast
10:53 AM 57.0 °F - 35.1 °F 44% 29.96 in 10.0 mi SW 10.4 mph - N/A   Overcast
11:53 AM 59.0 °F - 36.0 °F 42% 29.96 in 10.0 mi WSW 10.4 mph - N/A   Overcast
12:53 PM 61.0 °F - 36.0 °F 39% 29.93 in 10.0 mi WSW 16.1 mph 24.2 mph N/A   Partly Cloudy
1:53 PM 59.0 °F - 37.0 °F 44% 29.94 in 10.0 mi WSW 21.9 mph 28.8 mph N/A   Overcast
2:53 PM 59.0 °F - 41.0 °F 51% 29.95 in 10.0 mi WSW 19.6 mph 29.9 mph 0.00 in   Overcast
3:53 PM 57.0 °F - 39.0 °F 51% 29.94 in 10.0 mi WSW 26.5 mph 35.7 mph 0.00 in   Partly Cloudy
4:53 PM 55.9 °F - 37.9 °F 51% 29.95 in 10.0 mi WSW 24.2 mph 32.2 mph N/A   Scattered Clouds
5:53 PM 53.1 °F - 37.9 °F 57% 29.95 in 10.0 mi SW 20.7 mph 29.9 mph N/A   Scattered Clouds
6:53 PM 51.1 °F - 35.1 °F 54% 29.96 in 10.0 mi WSW 20.7 mph 27.6 mph N/A   Clear
7:53 PM 51.1 °F - 35.1 °F 54% 29.98 in 10.0 mi WSW 18.4 mph 29.9 mph N/A   Mostly Cloudy
8:53 PM 50.0 °F - 35.1 °F 57% 29.97 in 10.0 mi WSW 15.0 mph 25.3 mph N/A   Mostly Cloudy
9:53 PM 48.0 °F - 35.1 °F 61% 29.98 in 10.0 mi WSW 12.7 mph - N/A   Clear
10:53 PM 46.9 °F - 36.0 °F 66% 29.99 in 10.0 mi WSW 17.3 mph 23.0 mph N/A   Clear
11:53 PM 45.0 °F 38.2 °F 36.0 °F 71% 29.99 in 10.0 mi WSW 15.0 mph 21.9 mph N/A   Partly Cloudy